Time,TemperatureF,DewpointF,PressureIn,WindDirection,WindDirectionDegrees,WindSpeedMPH,WindSpeedGustMPH,Humidity,HourlyPrecipIn,Conditions,Clouds,dailyrainin,SoftwareType,DateUTC
2013-05-17 00:01:00,60.4,59.3,29.96,South,180,0.0,0.0,96,0.00,,,0.00,Wunderground v.1.15,2013-05-17 04:01:00,
2013-05-17 00:02:00,60.4,59.3,29.96,South,180,0.0,0.0,96,0.00,,,0.00,Wunderground v.1.15,2013-05-17 04:02:00,
2013-05-17 00:03:00,60.4,59.5,29.96,South,182,1.0,1.0,97,0.00,,,0.00,Wunderground v.1.15,2013-05-17 04:03:00,
2013-05-17 00:09:00,60.3,59.4,29.96,South,183,0.0,1.0,97,0.00,,,0.00,Wunderground v.1.15,2013-05-17 04:09:00,
2013-05-17 00:10:00,60.2,59.3,29.96,South,183,0.0,0.0,97,0.00,,,0.00,Wunderground v.1.15,2013-05-17 04:10:00,
2013-05-17 00:13:00,60.2,59.3,29.96,South,183,0.0,0.0,97,0.00,,,0.00,Wunderground v.1.15,2013-05-17 04:13:00,
2013-05-17 00:19:00,60.1,59.2,29.96,South,183,0.0,0.0,97,0.00,,,0.00,Wunderground v.1.15,2013-05-17 04:19:00,
2013-05-17 00:25:00,60.0,59.1,29.96,SSW,211,0.0,0.0,97,0.00,,,0.00,Wunderground v.1.15,2013-05-17 04:25:00,
2013-05-17 00:31:00,60.0,59.1,29.96,WSW,258,2.0,2.0,97,0.00,,,0.00,Wunderground v.1.15,2013-05-17 04:31:00,
2013-05-17 00:37:00,60.0,59.1,29.97,WSW,258,0.0,2.0,97,0.00,,,0.00,Wunderground v.1.15,2013-05-17 04:37:00,
2013-05-17 00:43:00,60.0,59.1,29.97,SSW,195,0.0,0.0,97,0.00,,,0.00,Wunderground v.1.15,2013-05-17 04:43:00,
2013-05-17 00:48:00,60.0,59.1,29.97,SSW,195,0.0,0.0,97,0.00,,,0.00,Wunderground v.1.15,2013-05-17 04:48:00,
2013-05-17 00:54:00,60.0,59.1,29.97,SSW,199,0.0,0.0,97,0.00,,,0.00,Wunderground v.1.15,2013-05-17 04:54:00,
2013-05-17 01:00:00,60.1,59.2,29.97,SSW,207,0.0,1.0,97,0.00,,,0.00,Wunderground v.1.15,2013-05-17 05:00:00,
2013-05-17 01:06:00,60.1,59.2,29.97,WSW,245,0.0,1.0,97,0.00,,,0.00,Wunderground v.1.15,2013-05-17 05:06:00,
2013-05-17 01:12:00,60.2,59.3,29.96,SSE,163,0.0,0.0,97,0.00,,,0.00,Wunderground v.1.15,2013-05-17 05:12:00,
2013-05-17 01:18:00,60.2,59.6,29.97,SSE,161,0.0,1.0,98,0.00,,,0.00,Wunderground v.1.15,2013-05-17 05:18:00,
2013-05-17 01:24:00,60.3,59.7,29.97,SW,230,0.0,4.0,98,0.00,,,0.00,Wunderground v.1.15,2013-05-17 05:24:00,
2013-05-17 01:29:00,60.4,59.8,29.96,SSW,212,0.0,4.0,98,0.00,,,0.00,Wunderground v.1.15,2013-05-17 05:29:00,
2013-05-17 01:35:00,60.3,59.7,29.96,SW,220,0.0,1.0,98,0.00,,,0.00,Wunderground v.1.15,2013-05-17 05:35:00,
2013-05-17 01:40:00,60.3,59.7,29.97,SW,220,0.0,0.0,98,0.00,,,0.00,Wunderground v.1.15,2013-05-17 05:40:00,
2013-05-17 01:46:00,60.3,59.7,29.97,SW,234,0.0,1.0,98,0.00,,,0.00,Wunderground v.1.15,2013-05-17 05:46:00,
2013-05-17 01:52:00,60.2,59.6,29.97,SW,217,1.0,1.0,98,0.00,,,0.00,Wunderground v.1.15,2013-05-17 05:52:00,
2013-05-17 01:58:00,60.2,59.6,29.97,SSW,195,0.0,1.0,98,0.00,,,0.00,Wunderground v.1.15,2013-05-17 05:58:00,
2013-05-17 02:03:00,60.2,59.3,29.97,SSW,195,0.0,5.0,97,0.00,,,0.00,Wunderground v.1.15,2013-05-17 06:03:00,
2013-05-17 02:08:00,60.1,59.2,29.97,SW,219,1.0,5.0,97,0.00,,,0.00,Wunderground v.1.15,2013-05-17 06:08:00,
2013-05-17 02:13:00,60.0,59.1,29.97,WNW,303,0.0,3.0,97,0.00,,,0.00,Wunderground v.1.15,2013-05-17 06:13:00,
2013-05-17 02:18:00,60.0,59.1,29.97,SSW,202,0.0,3.0,97,0.00,,,0.00,Wunderground v.1.15,2013-05-17 06:18:00,
2013-05-17 02:23:00,59.9,59.3,29.97,SSW,212,1.0,2.0,98,0.00,,,0.00,Wunderground v.1.15,2013-05-17 06:23:00,
2013-05-17 02:28:00,59.9,59.3,29.97,South,173,5.0,5.0,98,0.00,,,0.00,Wunderground v.1.15,2013-05-17 06:28:00,
2013-05-17 02:33:00,59.8,59.2,29.97,SSE,159,1.0,5.0,98,0.00,,,0.00,Wunderground v.1.15,2013-05-17 06:33:00,
2013-05-17 02:38:00,59.8,59.2,29.97,West,262,1.0,9.0,98,0.00,,,0.00,Wunderground v.1.15,2013-05-17 06:38:00,
2013-05-17 02:43:00,59.7,59.1,29.97,South,184,0.0,1.0,98,0.00,,,0.00,Wunderground v.1.15,2013-05-17 06:43:00,
2013-05-17 02:48:00,59.7,59.1,29.97,West,271,0.0,2.0,98,0.00,,,0.00,Wunderground v.1.15,2013-05-17 06:48:00,
2013-05-17 02:53:00,59.7,59.1,29.97,South,177,0.0,2.0,98,0.00,,,0.00,Wunderground v.1.15,2013-05-17 06:53:00,
2013-05-17 02:58:00,59.7,59.1,29.97,South,186,0.0,2.0,98,0.00,,,0.00,Wunderground v.1.15,2013-05-17 06:58:00,
2013-05-17 03:03:00,59.7,59.1,29.98,SSW,200,0.0,2.0,98,0.00,,,0.00,Wunderground v.1.15,2013-05-17 07:03:00,
2013-05-17 03:08:00,59.7,59.1,29.98,SW,215,0.0,2.0,98,0.00,,,0.00,Wunderground v.1.15,2013-05-17 07:08:00,
2013-05-17 03:13:00,59.7,59.1,29.98,West,275,0.0,5.0,98,0.00,,,0.00,Wunderground v.1.15,2013-05-17 07:13:00,
2013-05-17 03:18:00,59.7,59.1,29.98,West,275,0.0,5.0,98,0.00,,,0.00,Wunderground v.1.15,2013-05-17 07:18:00,
2013-05-17 03:23:00,59.7,59.1,29.99,WSW,247,0.0,0.0,98,0.00,,,0.00,Wunderground v.1.15,2013-05-17 07:23:00,
2013-05-17 03:28:00,59.6,59.0,29.99,WSW,248,0.0,3.0,98,0.00,,,0.00,Wunderground v.1.15,2013-05-17 07:28:00,
2013-05-17 03:33:00,59.6,59.0,29.99,SSE,154,0.0,3.0,98,0.00,,,0.00,Wunderground v.1.15,2013-05-17 07:33:00,
2013-05-17 03:38:00,59.6,59.0,29.99,SSW,204,0.0,4.0,98,0.00,,,0.00,Wunderground v.1.15,2013-05-17 07:38:00,
2013-05-17 03:43:00,59.6,59.0,29.99,West,271,0.0,1.0,98,0.00,,,0.00,Wunderground v.1.15,2013-05-17 07:43:00,
2013-05-17 03:49:00,59.5,58.9,30.00,NW,316,1.0,3.0,98,0.00,,,0.00,Wunderground v.1.15,2013-05-17 07:49:00,
2013-05-17 03:54:00,59.5,58.9,30.00,SSE,164,0.0,3.0,98,0.00,,,0.00,Wunderground v.1.15,2013-05-17 07:54:00,
2013-05-17 03:59:00,59.5,58.9,30.00,West,281,0.0,3.0,98,0.00,,,0.00,Wunderground v.1.15,2013-05-17 07:59:00,
2013-05-17 04:04:00,59.5,58.9,30.00,SW,234,0.0,2.0,98,0.00,,,0.00,Wunderground v.1.15,2013-05-17 08:04:00,
2013-05-17 04:09:00,59.5,58.9,30.00,SW,223,0.0,3.0,98,0.00,,,0.00,Wunderground v.1.15,2013-05-17 08:09:00,
2013-05-17 04:14:00,59.5,58.9,30.00,SW,234,1.0,2.0,98,0.00,,,0.00,Wunderground v.1.15,2013-05-17 08:14:00,
2013-05-17 04:19:00,59.5,58.9,30.00,WSW,238,0.0,2.0,98,0.00,,,0.00,Wunderground v.1.15,2013-05-17 08:19:00,
2013-05-17 04:24:00,59.4,58.8,30.00,WSW,258,0.0,3.0,98,0.00,,,0.00,Wunderground v.1.15,2013-05-17 08:24:00,
2013-05-17 04:29:00,59.4,58.8,30.00,WSW,258,0.0,3.0,98,0.00,,,0.00,Wunderground v.1.15,2013-05-17 08:29:00,
2013-05-17 04:34:00,59.4,58.8,30.01,WSW,258,0.0,1.0,98,0.00,,,0.00,Wunderground v.1.15,2013-05-17 08:34:00,
2013-05-17 04:39:00,59.5,58.9,30.01,WSW,258,0.0,1.0,98,0.00,,,0.00,Wunderground v.1.15,2013-05-17 08:39:00,
2013-05-17 04:44:00,59.4,58.8,30.01,WSW,258,0.0,0.0,98,0.00,,,0.00,Wunderground v.1.15,2013-05-17 08:44:00,
2013-05-17 04:49:00,59.4,58.8,30.01,WSW,258,0.0,1.0,98,0.00,,,0.00,Wunderground v.1.15,2013-05-17 08:49:00,
2013-05-17 04:54:00,59.4,59.1,30.01,WSW,258,0.0,0.0,99,0.00,,,0.00,Wunderground v.1.15,2013-05-17 08:54:00,
2013-05-17 04:59:00,59.3,59.0,30.01,WSW,258,0.0,0.0,99,0.00,,,0.00,Wunderground v.1.15,2013-05-17 08:59:00,
2013-05-17 05:04:00,59.3,59.0,30.01,WSW,258,0.0,0.0,99,0.00,,,0.00,Wunderground v.1.15,2013-05-17 09:04:00,
2013-05-17 05:09:00,59.3,59.0,30.01,WSW,258,0.0,0.0,99,0.00,,,0.00,Wunderground v.1.15,2013-05-17 09:09:00,
2013-05-17 05:14:00,59.2,58.9,30.02,WSW,258,0.0,2.0,99,0.00,,,0.00,Wunderground v.1.15,2013-05-17 09:14:00,
2013-05-17 05:19:00,59.2,58.9,30.02,WSW,237,0.0,2.0,99,0.00,,,0.00,Wunderground v.1.15,2013-05-17 09:19:00,
2013-05-17 05:24:00,59.1,58.5,30.02,WSW,237,0.0,0.0,98,0.00,,,0.00,Wunderground v.1.15,2013-05-17 09:24:00,
2013-05-17 05:30:00,59.0,58.4,30.02,WSW,237,0.0,0.0,98,0.00,,,0.00,Wunderground v.1.15,2013-05-17 09:30:00,
2013-05-17 05:35:00,58.9,58.3,30.02,WSW,237,0.0,1.0,98,0.00,,,0.00,Wunderground v.1.15,2013-05-17 09:35:00,
2013-05-17 05:40:00,58.8,58.5,30.02,WSW,237,0.0,0.0,99,0.00,,,0.00,Wunderground v.1.15,2013-05-17 09:40:00,
2013-05-17 05:45:00,58.7,58.4,30.02,WSW,237,0.0,0.0,99,0.00,,,0.00,Wunderground v.1.15,2013-05-17 09:45:00,
2013-05-17 05:50:00,58.6,58.3,30.03,WSW,237,0.0,0.0,99,0.00,,,0.00,Wunderground v.1.15,2013-05-17 09:50:00,
2013-05-17 05:55:00,58.6,58.3,30.03,WSW,237,0.0,0.0,99,0.00,,,0.00,Wunderground v.1.15,2013-05-17 09:55:00,
2013-05-17 06:00:00,58.6,58.3,30.03,WSW,237,0.0,0.0,99,0.00,,,0.00,Wunderground v.1.15,2013-05-17 10:00:00,
2013-05-17 06:05:00,58.5,57.9,30.03,WSW,237,0.0,0.0,98,0.00,,,0.00,Wunderground v.1.15,2013-05-17 10:05:00,
2013-05-17 06:10:00,58.4,57.8,30.04,WSW,237,0.0,0.0,98,0.00,,,0.00,Wunderground v.1.15,2013-05-17 10:10:00,
2013-05-17 06:15:00,58.4,57.8,30.03,WSW,237,0.0,0.0,98,0.00,,,0.00,Wunderground v.1.15,2013-05-17 10:15:00,
2013-05-17 06:20:00,58.4,57.8,30.04,WSW,237,0.0,0.0,98,0.00,,,0.00,Wunderground v.1.15,2013-05-17 10:20:00,
2013-05-17 06:25:00,58.4,58.1,30.04,WSW,237,0.0,0.0,99,0.00,,,0.00,Wunderground v.1.15,2013-05-17 10:25:00,
2013-05-17 06:30:00,58.4,58.1,30.04,WSW,237,0.0,0.0,99,0.00,,,0.00,Wunderground v.1.15,2013-05-17 10:30:00,
2013-05-17 06:35:00,58.3,57.7,30.04,WSW,237,0.0,0.0,98,0.00,,,0.00,Wunderground v.1.15,2013-05-17 10:35:00,
2013-05-17 06:40:00,58.3,57.7,30.04,WSW,237,0.0,0.0,98,0.00,,,0.00,Wunderground v.1.15,2013-05-17 10:40:00,
2013-05-17 06:45:00,58.3,58.0,30.04,WSW,237,0.0,0.0,99,0.00,,,0.00,Wunderground v.1.15,2013-05-17 10:45:00,
2013-05-17 06:50:00,58.3,58.0,30.05,WSW,237,0.0,0.0,99,0.00,,,0.00,Wunderground v.1.15,2013-05-17 10:50:00,
2013-05-17 06:55:00,58.2,57.9,30.05,WSW,237,0.0,0.0,99,0.00,,,0.00,Wunderground v.1.15,2013-05-17 10:55:00,
2013-05-17 07:00:00,58.1,57.8,30.05,WSW,237,0.0,0.0,99,0.00,,,0.00,Wunderground v.1.15,2013-05-17 11:00:00,
2013-05-17 07:05:00,58.0,57.7,30.05,WSW,237,0.0,0.0,99,0.00,,,0.00,Wunderground v.1.15,2013-05-17 11:05:00,
2013-05-17 07:10:00,58.0,57.7,30.05,WSW,237,0.0,0.0,99,0.00,,,0.00,Wunderground v.1.15,2013-05-17 11:10:00,
2013-05-17 07:15:00,58.1,57.8,30.05,WSW,237,0.0,0.0,99,0.00,,,0.00,Wunderground v.1.15,2013-05-17 11:15:00,
2013-05-17 07:20:00,58.2,57.9,30.06,WSW,237,0.0,0.0,99,0.00,,,0.00,Wunderground v.1.15,2013-05-17 11:20:00,
2013-05-17 07:26:00,58.3,58.0,30.06,WSW,237,0.0,0.0,99,0.00,,,0.00,Wunderground v.1.15,2013-05-17 11:26:00,
2013-05-17 07:31:00,58.3,58.0,30.06,WSW,237,0.0,0.0,99,0.00,,,0.00,Wunderground v.1.15,2013-05-17 11:31:00,
2013-05-17 07:36:00,58.4,58.1,30.06,North,360,0.0,1.0,99,0.00,,,0.00,Wunderground v.1.15,2013-05-17 11:36:00,
2013-05-17 07:41:00,58.4,58.1,30.06,North,360,0.0,0.0,99,0.00,,,0.00,Wunderground v.1.15,2013-05-17 11:41:00,
2013-05-17 07:46:00,58.4,58.1,30.06,NNE,22,0.0,1.0,99,0.00,,,0.00,Wunderground v.1.15,2013-05-17 11:46:00,
2013-05-17 07:51:00,58.6,58.3,30.06,NNE,22,0.0,0.0,99,0.00,,,0.00,Wunderground v.1.15,2013-05-17 11:51:00,
2013-05-17 07:56:00,58.7,58.1,30.06,NNE,24,0.0,0.0,98,0.00,,,0.00,Wunderground v.1.15,2013-05-17 11:56:00,
2013-05-17 08:01:00,59.0,58.4,30.06,SW,226,0.0,2.0,98,0.00,,,0.00,Wunderground v.1.15,2013-05-17 12:01:00,
2013-05-17 08:06:00,59.5,58.6,30.06,NW,312,0.0,4.0,97,0.00,,,0.00,Wunderground v.1.15,2013-05-17 12:06:00,
2013-05-17 08:11:00,59.9,58.8,30.07,South,181,0.0,0.0,96,0.00,,,0.00,Wunderground v.1.15,2013-05-17 12:11:00,
2013-05-17 08:16:00,60.4,59.0,30.07,SW,215,0.0,2.0,95,0.00,,,0.00,Wunderground v.1.15,2013-05-17 12:16:00,
2013-05-17 08:21:00,60.7,58.7,30.07,SW,215,0.0,0.0,93,0.00,,,0.00,Wunderground v.1.15,2013-05-17 12:21:00,
2013-05-17 08:26:00,60.8,58.8,30.07,SW,215,0.0,1.0,93,0.00,,,0.00,Wunderground v.1.15,2013-05-17 12:26:00,
2013-05-17 08:31:00,61.0,58.7,30.07,ENE,76,0.0,1.0,92,0.00,,,0.00,Wunderground v.1.15,2013-05-17 12:31:00,
2013-05-17 08:36:00,61.4,59.1,30.07,SSE,151,0.0,2.0,92,0.00,,,0.00,Wunderground v.1.15,2013-05-17 12:36:00,
2013-05-17 08:41:00,61.6,58.6,30.07,SSW,207,1.0,1.0,90,0.00,,,0.00,Wunderground v.1.15,2013-05-17 12:41:00,
2013-05-17 08:46:00,61.7,58.7,30.07,ENE,57,0.0,2.0,90,0.00,,,0.00,Wunderground v.1.15,2013-05-17 12:46:00,
2013-05-17 08:51:00,61.9,58.9,30.07,East,88,0.0,2.0,90,0.00,,,0.00,Wunderground v.1.15,2013-05-17 12:51:00,
2013-05-17 08:56:00,62.1,59.1,30.08,SSW,198,0.0,2.0,90,0.00,,,0.00,Wunderground v.1.15,2013-05-17 12:56:00,
2013-05-17 09:01:00,62.4,59.1,30.08,WSW,246,0.0,1.0,89,0.00,,,0.00,Wunderground v.1.15,2013-05-17 13:01:00,
2013-05-17 09:06:00,62.4,59.4,30.08,SSW,200,0.0,3.0,90,0.00,,,0.00,Wunderground v.1.15,2013-05-17 13:06:00,
2013-05-17 09:11:00,62.7,59.4,30.08,WSW,242,0.0,1.0,89,0.00,,,0.00,Wunderground v.1.15,2013-05-17 13:11:00,
2013-05-17 09:16:00,62.9,59.3,30.08,East,94,0.0,2.0,88,0.00,,,0.00,Wunderground v.1.15,2013-05-17 13:16:00,
2013-05-17 09:21:00,63.2,59.3,30.08,SW,219,0.0,1.0,87,0.00,,,0.00,Wunderground v.1.15,2013-05-17 13:21:00,
2013-05-17 09:26:00,63.6,59.7,30.08,SW,219,0.0,2.0,87,0.00,,,0.00,Wunderground v.1.15,2013-05-17 13:26:00,
2013-05-17 09:31:00,63.9,59.6,30.08,SW,219,0.0,1.0,86,0.00,,,0.00,Wunderground v.1.15,2013-05-17 13:31:00,
2013-05-17 09:36:00,64.4,60.1,30.08,SW,219,0.0,3.0,86,0.00,,,0.00,Wunderground v.1.15,2013-05-17 13:36:00,
2013-05-17 09:41:00,64.9,59.6,30.08,SSW,198,4.0,4.0,83,0.00,,,0.00,Wunderground v.1.15,2013-05-17 13:41:00,
2013-05-17 09:46:00,64.9,59.3,30.08,SSW,193,0.0,5.0,82,0.00,,,0.00,Wunderground v.1.15,2013-05-17 13:46:00,
2013-05-17 09:51:00,65.1,59.5,30.08,West,259,2.0,3.0,82,0.00,,,0.00,Wunderground v.1.15,2013-05-17 13:51:00,
2013-05-17 09:56:00,65.0,59.7,30.08,SSW,210,0.0,3.0,83,0.00,,,0.00,Wunderground v.1.15,2013-05-17 13:56:00,
2013-05-17 10:01:00,65.2,60.2,30.08,SSW,211,0.0,2.0,84,0.00,,,0.00,Wunderground v.1.15,2013-05-17 14:01:00,
2013-05-17 10:06:00,65.5,59.9,30.08,SSW,211,0.0,2.0,82,0.00,,,0.00,Wunderground v.1.15,2013-05-17 14:06:00,
2013-05-17 10:11:00,66.4,60.7,30.08,SSW,211,0.0,1.0,82,0.00,,,0.00,Wunderground v.1.15,2013-05-17 14:11:00,
2013-05-17 10:16:00,66.9,60.5,30.08,SSW,212,0.0,2.0,80,0.00,,,0.00,Wunderground v.1.15,2013-05-17 14:16:00,
2013-05-17 10:21:00,67.4,61.0,30.08,SSW,212,0.0,0.0,80,0.00,,,0.00,Wunderground v.1.15,2013-05-17 14:21:00,
2013-05-17 10:26:00,68.0,61.2,30.08,SSW,212,0.0,2.0,79,0.00,,,0.00,Wunderground v.1.15,2013-05-17 14:26:00,
2013-05-17 10:31:00,68.6,62.2,30.08,SSW,212,0.0,1.0,80,0.00,,,0.00,Wunderground v.1.15,2013-05-17 14:31:00,
2013-05-17 10:36:00,68.9,61.4,30.07,SSW,213,0.0,1.0,77,0.00,,,0.00,Wunderground v.1.15,2013-05-17 14:36:00,
2013-05-17 10:41:00,69.3,61.0,30.07,ESE,105,0.0,2.0,75,0.00,,,0.00,Wunderground v.1.15,2013-05-17 14:41:00,
2013-05-17 10:46:00,69.5,62.0,30.07,North,350,1.0,6.0,77,0.00,,,0.00,Wunderground v.1.15,2013-05-17 14:46:00,
2013-05-17 10:51:00,69.7,62.2,30.07,North,350,0.0,1.0,77,0.00,,,0.00,Wunderground v.1.15,2013-05-17 14:51:00,
2013-05-17 10:57:00,69.9,61.6,30.07,NW,311,2.0,3.0,75,0.00,,,0.00,Wunderground v.1.15,2013-05-17 14:57:00,
2013-05-17 11:02:00,70.3,62.4,30.07,NW,325,1.0,3.0,76,0.00,,,0.00,Wunderground v.1.15,2013-05-17 15:02:00,
2013-05-17 11:07:00,70.4,61.3,30.07,WNW,290,0.0,3.0,73,0.00,,,0.00,Wunderground v.1.15,2013-05-17 15:07:00,
2013-05-17 11:12:00,70.4,61.7,30.07,WNW,289,0.0,1.0,74,0.00,,,0.00,Wunderground v.1.15,2013-05-17 15:12:00,
2013-05-17 11:17:00,70.9,61.8,30.07,NNW,335,0.0,3.0,73,0.00,,,0.00,Wunderground v.1.15,2013-05-17 15:17:00,
2013-05-17 11:22:00,71.1,62.4,30.06,WNW,283,0.0,4.0,74,0.00,,,0.00,Wunderground v.1.15,2013-05-17 15:22:00,
2013-05-17 11:27:00,71.3,62.2,30.06,NW,306,0.0,5.0,73,0.00,,,0.00,Wunderground v.1.15,2013-05-17 15:27:00,
2013-05-17 11:32:00,71.6,61.7,30.06,NNW,328,0.0,2.0,71,0.00,,,0.00,Wunderground v.1.15,2013-05-17 15:32:00,
2013-05-17 11:37:00,71.7,62.6,30.06,NW,304,2.0,3.0,73,0.00,,,0.00,Wunderground v.1.15,2013-05-17 15:37:00,
2013-05-17 11:42:00,72.3,62.4,30.06,NW,304,4.0,4.0,71,0.00,,,0.00,Wunderground v.1.15,2013-05-17 15:42:00,
2013-05-17 11:47:00,72.4,62.1,30.06,NNW,343,0.0,4.0,70,0.00,,,0.00,Wunderground v.1.15,2013-05-17 15:47:00,
2013-05-17 11:52:00,72.8,61.6,30.06,NW,318,0.0,2.0,68,0.00,,,0.00,Wunderground v.1.15,2013-05-17 15:52:00,
2013-05-17 11:57:00,72.9,62.5,30.06,WSW,244,0.0,4.0,70,0.00,,,0.00,Wunderground v.1.15,2013-05-17 15:57:00,
2013-05-17 12:02:00,73.0,61.8,30.06,WSW,248,0.0,3.0,68,0.00,,,0.00,Wunderground v.1.15,2013-05-17 16:02:00,
2013-05-17 12:07:00,73.0,61.4,30.06,East,96,0.0,4.0,67,0.00,,,0.00,Wunderground v.1.15,2013-05-17 16:07:00,
2013-05-17 12:12:00,73.4,62.6,30.06,East,94,0.0,1.0,69,0.00,,,0.00,Wunderground v.1.15,2013-05-17 16:12:00,
2013-05-17 12:17:00,73.9,62.7,30.06,NW,324,0.0,4.0,68,0.00,,,0.00,Wunderground v.1.15,2013-05-17 16:17:00,
2013-05-17 12:22:00,74.3,63.1,30.06,NW,324,1.0,1.0,68,0.00,,,0.00,Wunderground v.1.15,2013-05-17 16:22:00,
2013-05-17 12:27:00,74.7,62.1,30.06,NNW,344,0.0,3.0,65,0.00,,,0.00,Wunderground v.1.15,2013-05-17 16:27:00,
2013-05-17 12:32:00,74.6,62.1,30.06,NNW,329,1.0,4.0,65,0.00,,,0.00,Wunderground v.1.15,2013-05-17 16:32:00,
2013-05-17 12:37:00,74.5,62.4,30.06,NNW,329,0.0,4.0,66,0.00,,,0.00,Wunderground v.1.15,2013-05-17 16:37:00,
2013-05-17 12:42:00,74.6,62.1,30.06,North,350,2.0,4.0,65,0.00,,,0.00,Wunderground v.1.15,2013-05-17 16:42:00,
2013-05-17 12:47:00,74.5,62.4,30.05,WNW,302,0.0,6.0,66,0.00,,,0.00,Wunderground v.1.15,2013-05-17 16:47:00,
2013-05-17 12:52:00,74.9,63.2,30.05,NNE,30,2.0,2.0,67,0.00,,,0.00,Wunderground v.1.15,2013-05-17 16:52:00,
2013-05-17 12:58:00,75.2,62.2,30.05,West,260,0.0,3.0,64,0.00,,,0.00,Wunderground v.1.15,2013-05-17 16:58:00,
2013-05-17 13:03:00,75.5,62.5,30.05,NNE,12,1.0,4.0,64,0.00,,,0.00,Wunderground v.1.15,2013-05-17 17:03:00,
2013-05-17 13:08:00,75.3,61.8,30.05,WSW,249,0.0,4.0,63,0.00,,,0.00,Wunderground v.1.15,2013-05-17 17:08:00,
2013-05-17 13:13:00,75.3,60.9,30.05,West,261,1.0,4.0,61,0.00,,,0.00,Wunderground v.1.15,2013-05-17 17:13:00,
2013-05-17 13:18:00,75.3,60.9,30.05,NNW,331,0.0,4.0,61,0.00,,,0.00,Wunderground v.1.15,2013-05-17 17:18:00,
2013-05-17 13:23:00,76.0,61.1,30.05,NW,325,0.0,4.0,60,0.00,,,0.00,Wunderground v.1.15,2013-05-17 17:23:00,
2013-05-17 13:28:00,76.0,57.6,30.04,ENE,76,0.0,4.0,53,0.00,,,0.00,Wunderground v.1.15,2013-05-17 17:28:00,
2013-05-17 13:33:00,76.4,58.5,30.04,North,360,0.0,2.0,54,0.00,,,0.00,Wunderground v.1.15,2013-05-17 17:33:00,
2013-05-17 13:38:00,76.7,55.0,30.04,NW,320,0.0,4.0,47,0.00,,,0.00,Wunderground v.1.15,2013-05-17 17:38:00,
2013-05-17 13:43:00,77.1,57.0,30.04,North,360,1.0,2.0,50,0.00,,,0.00,Wunderground v.1.15,2013-05-17 17:43:00,
2013-05-17 13:48:00,76.5,55.9,30.04,WSW,255,3.0,4.0,49,0.00,,,0.00,Wunderground v.1.15,2013-05-17 17:48:00,
2013-05-17 13:53:00,76.5,56.5,30.04,NNE,16,0.0,1.0,50,0.00,,,0.00,Wunderground v.1.15,2013-05-17 17:53:00,
2013-05-17 13:58:00,77.2,56.6,30.04,WSW,255,0.0,3.0,49,0.00,,,0.00,Wunderground v.1.15,2013-05-17 17:58:00,
2013-05-17 14:03:00,77.0,54.6,30.04,WSW,250,1.0,3.0,46,0.00,,,0.00,Wunderground v.1.15,2013-05-17 18:03:00,
2013-05-17 14:08:00,77.5,53.9,30.04,NNW,348,0.0,5.0,44,0.00,,,0.00,Wunderground v.1.15,2013-05-17 18:08:00,
2013-05-17 14:13:00,78.2,50.5,30.04,SW,229,2.0,2.0,38,0.00,,,0.00,Wunderground v.1.15,2013-05-17 18:13:00,
2013-05-17 14:18:00,78.3,53.3,30.03,SSW,205,0.0,4.0,42,0.00,,,0.00,Wunderground v.1.15,2013-05-17 18:18:00,
2013-05-17 14:23:00,78.6,53.6,30.03,NW,309,0.0,3.0,42,0.00,,,0.00,Wunderground v.1.15,2013-05-17 18:23:00,
2013-05-17 14:28:00,78.8,52.4,30.03,SW,233,1.0,4.0,40,0.00,,,0.00,Wunderground v.1.15,2013-05-17 18:28:00,
2013-05-17 14:33:00,78.6,52.3,30.03,West,271,4.0,5.0,40,0.00,,,0.00,Wunderground v.1.15,2013-05-17 18:33:00,
2013-05-17 14:38:00,78.0,49.6,30.03,NNW,347,0.0,5.0,37,0.00,,,0.00,Wunderground v.1.15,2013-05-17 18:38:00,
2013-05-17 14:43:00,77.9,51.6,30.03,SW,236,0.0,2.0,40,0.00,,,0.00,Wunderground v.1.15,2013-05-17 18:43:00,
2013-05-17 14:48:00,78.0,51.0,30.03,SSW,196,1.0,3.0,39,0.00,,,0.00,Wunderground v.1.15,2013-05-17 18:48:00,
2013-05-17 14:53:00,78.2,51.9,30.03,WNW,285,0.0,4.0,40,0.00,,,0.00,Wunderground v.1.15,2013-05-17 18:53:00,
2013-05-17 14:58:00,78.6,52.9,30.03,WNW,292,4.0,4.0,41,0.00,,,0.00,Wunderground v.1.15,2013-05-17 18:58:00,
2013-05-17 15:03:00,78.9,50.4,30.03,WNW,284,3.0,3.0,37,0.00,,,0.00,Wunderground v.1.15,2013-05-17 19:03:00,
2013-05-17 15:08:00,78.4,49.2,30.03,SE,146,1.0,5.0,36,0.00,,,0.00,Wunderground v.1.15,2013-05-17 19:08:00,
2013-05-17 15:13:00,78.0,48.1,30.03,West,273,0.0,3.0,35,0.00,,,0.00,Wunderground v.1.15,2013-05-17 19:13:00,
2013-05-17 15:18:00,78.5,47.0,30.03,South,175,0.0,4.0,33,0.00,,,0.00,Wunderground v.1.15,2013-05-17 19:18:00,
2013-05-17 15:23:00,78.6,47.1,30.03,NW,325,2.0,4.0,33,0.00,,,0.00,Wunderground v.1.15,2013-05-17 19:23:00,
2013-05-17 15:28:00,78.7,46.4,30.02,NE,42,1.0,4.0,32,0.00,,,0.00,Wunderground v.1.15,2013-05-17 19:28:00,
2013-05-17 15:33:00,79.3,51.5,30.02,NW,321,0.0,4.0,38,0.00,,,0.00,Wunderground v.1.15,2013-05-17 19:33:00,
2013-05-17 15:38:00,79.4,45.3,30.03,North,351,0.0,4.0,30,0.00,,,0.00,Wunderground v.1.15,2013-05-17 19:38:00,
2013-05-17 15:43:00,79.9,47.4,30.02,ENE,60,0.0,2.0,32,0.00,,,0.00,Wunderground v.1.15,2013-05-17 19:43:00,
2013-05-17 15:48:00,79.9,43.9,30.02,North,360,1.0,3.0,28,0.00,,,0.00,Wunderground v.1.15,2013-05-17 19:48:00,
2013-05-17 15:53:00,80.0,44.0,30.02,NW,321,1.0,4.0,28,0.00,,,0.00,Wunderground v.1.15,2013-05-17 19:53:00,
2013-05-17 15:58:00,79.4,44.4,30.02,NNE,28,1.0,9.0,29,0.00,,,0.00,Wunderground v.1.15,2013-05-17 19:58:00,
2013-05-17 16:03:00,79.4,45.3,30.02,NW,319,1.0,2.0,30,0.00,,,0.00,Wunderground v.1.15,2013-05-17 20:03:00,
2013-05-17 16:08:00,79.5,44.5,30.02,NNE,13,0.0,4.0,29,0.00,,,0.00,Wunderground v.1.15,2013-05-17 20:08:00,
2013-05-17 16:13:00,79.3,46.9,30.01,NNE,15,0.0,3.0,32,0.00,,,0.00,Wunderground v.1.15,2013-05-17 20:13:00,
2013-05-17 16:19:00,79.9,48.2,30.01,NNE,15,0.0,3.0,33,0.00,,,0.00,Wunderground v.1.15,2013-05-17 20:19:00,
2013-05-17 16:24:00,79.9,48.2,30.02,West,267,0.0,2.0,33,0.00,,,0.00,Wunderground v.1.15,2013-05-17 20:24:00,
2013-05-17 16:29:00,79.9,46.6,30.01,NNW,329,1.0,4.0,31,0.00,,,0.00,Wunderground v.1.15,2013-05-17 20:29:00,
2013-05-17 16:34:00,79.4,47.0,30.01,SSE,165,0.0,7.0,32,0.00,,,0.00,Wunderground v.1.15,2013-05-17 20:34:00,
2013-05-17 16:39:00,79.5,48.7,30.01,West,266,1.0,7.0,34,0.00,,,0.00,Wunderground v.1.15,2013-05-17 20:39:00,
2013-05-17 16:44:00,79.6,44.5,30.01,SW,219,1.0,3.0,29,0.00,,,0.00,Wunderground v.1.15,2013-05-17 20:44:00,
2013-05-17 16:49:00,79.9,47.4,30.01,West,273,0.0,3.0,32,0.00,,,0.00,Wunderground v.1.15,2013-05-17 20:49:00,
2013-05-17 16:54:00,80.2,46.8,30.01,West,271,2.0,5.0,31,0.00,,,0.00,Wunderground v.1.15,2013-05-17 20:54:00,
2013-05-17 16:59:00,80.2,46.8,30.01,NNW,342,1.0,5.0,31,0.00,,,0.00,Wunderground v.1.15,2013-05-17 20:59:00,
2013-05-17 17:04:00,80.0,45.8,30.01,West,277,0.0,3.0,30,0.00,,,0.00,Wunderground v.1.15,2013-05-17 21:04:00,
2013-05-17 17:09:00,80.1,46.7,30.01,WNW,293,1.0,3.0,31,0.00,,,0.00,Wunderground v.1.15,2013-05-17 21:09:00,
2013-05-17 17:14:00,80.1,47.6,30.00,SW,225,1.0,5.0,32,0.00,,,0.00,Wunderground v.1.15,2013-05-17 21:14:00,
2013-05-17 17:19:00,79.8,48.1,30.01,SW,231,0.0,5.0,33,0.00,,,0.00,Wunderground v.1.15,2013-05-17 21:19:00,
2013-05-17 17:24:00,79.6,49.5,30.01,North,355,1.0,5.0,35,0.00,,,0.00,Wunderground v.1.15,2013-05-17 21:24:00,
2013-05-17 17:29:00,79.4,50.1,30.01,NNW,344,1.0,5.0,36,0.00,,,0.00,Wunderground v.1.15,2013-05-17 21:29:00,
2013-05-17 17:34:00,78.9,49.7,30.01,NNW,345,0.0,4.0,36,0.00,,,0.00,Wunderground v.1.15,2013-05-17 21:34:00,
2013-05-17 17:40:00,79.1,50.6,30.01,NNW,329,0.0,1.0,37,0.00,,,0.00,Wunderground v.1.15,2013-05-17 21:40:00,
2013-05-17 17:45:00,79.0,51.2,30.01,West,263,2.0,4.0,38,0.00,,,0.00,Wunderground v.1.15,2013-05-17 21:45:00,
2013-05-17 17:50:00,78.7,51.0,30.01,North,360,0.0,1.0,38,0.00,,,0.00,Wunderground v.1.15,2013-05-17 21:50:00,
2013-05-17 17:55:00,78.1,50.4,30.01,NW,310,0.0,3.0,38,0.00,,,0.00,Wunderground v.1.15,2013-05-17 21:55:00,
2013-05-17 18:00:00,77.6,52.7,30.01,NW,311,0.0,0.0,42,0.00,,,0.00,Wunderground v.1.15,2013-05-17 22:00:00,
2013-05-17 18:05:00,77.3,51.8,30.01,NW,304,0.0,3.0,41,0.00,,,0.00,Wunderground v.1.15,2013-05-17 22:05:00,
2013-05-17 18:10:00,77.0,53.4,30.01,NW,304,0.0,0.0,44,0.00,,,0.00,Wunderground v.1.15,2013-05-17 22:10:00,
2013-05-17 18:15:00,76.7,51.9,30.01,NW,313,0.0,2.0,42,0.00,,,0.00,Wunderground v.1.15,2013-05-17 22:15:00,
2013-05-17 18:20:00,76.5,53.0,30.01,NW,313,0.0,0.0,44,0.00,,,0.00,Wunderground v.1.15,2013-05-17 22:20:00,
2013-05-17 18:25:00,76.4,52.9,30.01,NW,313,0.0,0.0,44,0.00,,,0.00,Wunderground v.1.15,2013-05-17 22:25:00,
2013-05-17 18:30:00,76.3,54.0,30.01,NW,313,0.0,0.0,46,0.00,,,0.00,Wunderground v.1.15,2013-05-17 22:30:00,
2013-05-17 18:35:00,76.2,55.1,30.01,NW,311,1.0,1.0,48,0.00,,,0.00,Wunderground v.1.15,2013-05-17 22:35:00,
2013-05-17 18:40:00,76.0,53.7,30.01,NNE,15,0.0,0.0,46,0.00,,,0.00,Wunderground v.1.15,2013-05-17 22:40:00,
2013-05-17 18:45:00,75.9,54.8,30.01,NNW,332,2.0,2.0,48,0.00,,,0.00,Wunderground v.1.15,2013-05-17 22:45:00,
2013-05-17 18:50:00,75.5,54.4,30.01,NW,314,0.0,0.0,48,0.00,,,0.00,Wunderground v.1.15,2013-05-17 22:50:00,
2013-05-17 18:55:00,75.1,54.1,30.01,NNW,329,0.0,4.0,48,0.00,,,0.00,Wunderground v.1.15,2013-05-17 22:55:00,
2013-05-17 19:00:00,74.8,53.8,30.01,NNW,329,0.0,0.0,48,0.00,,,0.00,Wunderground v.1.15,2013-05-17 23:00:00,
2013-05-17 19:05:00,74.5,53.5,30.01,NNW,329,0.0,1.0,48,0.00,,,0.00,Wunderground v.1.15,2013-05-17 23:05:00,
2013-05-17 19:10:00,74.3,54.5,30.01,NNW,329,0.0,0.0,50,0.00,,,0.00,Wunderground v.1.15,2013-05-17 23:10:00,
2013-05-17 19:15:00,74.1,54.8,30.01,NNW,329,0.0,0.0,51,0.00,,,0.00,Wunderground v.1.15,2013-05-17 23:15:00,
2013-05-17 19:20:00,73.7,53.9,30.01,NNW,329,0.0,0.0,50,0.00,,,0.00,Wunderground v.1.15,2013-05-17 23:20:00,
2013-05-17 19:25:00,73.5,54.3,30.02,NNW,329,0.0,0.0,51,0.00,,,0.00,Wunderground v.1.15,2013-05-17 23:25:00,
2013-05-17 19:30:00,73.4,54.2,30.02,NNW,329,0.0,0.0,51,0.00,,,0.00,Wunderground v.1.15,2013-05-17 23:30:00,
2013-05-17 19:35:00,73.1,53.9,30.02,NNW,329,0.0,0.0,51,0.00,,,0.00,Wunderground v.1.15,2013-05-17 23:35:00,
2013-05-17 19:40:00,72.8,55.2,30.02,NNW,329,0.0,0.0,54,0.00,,,0.00,Wunderground v.1.15,2013-05-17 23:40:00,
2013-05-17 19:45:00,72.3,56.2,30.02,NNW,329,0.0,0.0,57,0.00,,,0.00,Wunderground v.1.15,2013-05-17 23:45:00,
2013-05-17 19:50:00,71.9,54.9,30.02,NE,54,0.0,0.0,55,0.00,,,0.00,Wunderground v.1.15,2013-05-17 23:50:00,
2013-05-17 19:55:00,71.5,56.4,30.02,NE,54,0.0,0.0,59,0.00,,,0.00,Wunderground v.1.15,2013-05-17 23:55:00,
2013-05-17 20:00:00,71.0,55.0,30.02,NE,54,0.0,0.0,57,0.00,,,0.00,Wunderground v.1.15,2013-05-18 00:00:00,
2013-05-17 20:05:00,70.6,55.1,30.02,NE,54,0.0,0.0,58,0.00,,,0.00,Wunderground v.1.15,2013-05-18 00:05:00,
2013-05-17 20:10:00,70.1,54.6,30.02,NE,54,0.0,0.0,58,0.00,,,0.00,Wunderground v.1.15,2013-05-18 00:10:00,
2013-05-17 20:15:00,69.7,55.2,30.02,NE,54,0.0,0.0,60,0.00,,,0.00,Wunderground v.1.15,2013-05-18 00:15:00,
2013-05-17 20:20:00,69.4,55.4,30.03,NE,54,0.0,0.0,61,0.00,,,0.00,Wunderground v.1.15,2013-05-18 00:20:00,
2013-05-17 20:25:00,69.0,55.0,30.03,NE,54,0.0,1.0,61,0.00,,,0.00,Wunderground v.1.15,2013-05-18 00:25:00,
2013-05-17 20:30:00,68.7,54.7,30.03,NE,54,0.0,0.0,61,0.00,,,0.00,Wunderground v.1.15,2013-05-18 00:30:00,
2013-05-17 20:35:00,68.5,55.0,30.03,NE,54,0.0,0.0,62,0.00,,,0.00,Wunderground v.1.15,2013-05-18 00:35:00,
2013-05-17 20:40:00,68.4,54.9,30.03,NE,54,0.0,0.0,62,0.00,,,0.00,Wunderground v.1.15,2013-05-18 00:40:00,
2013-05-17 20:45:00,68.2,54.7,30.03,NE,54,0.0,0.0,62,0.00,,,0.00,Wunderground v.1.15,2013-05-18 00:45:00,
2013-05-17 20:50:00,68.1,54.6,30.04,NE,54,0.0,0.0,62,0.00,,,0.00,Wunderground v.1.15,2013-05-18 00:50:00,
2013-05-17 20:55:00,68.0,54.5,30.04,NE,54,0.0,0.0,62,0.00,,,0.00,Wunderground v.1.15,2013-05-18 00:55:00,
2013-05-17 21:00:00,68.0,54.5,30.04,NE,54,0.0,0.0,62,0.00,,,0.00,Wunderground v.1.15,2013-05-18 01:00:00,
2013-05-17 21:05:00,68.0,54.0,30.04,NE,54,0.0,0.0,61,0.00,,,0.00,Wunderground v.1.15,2013-05-18 01:05:00,
2013-05-17 21:11:00,68.1,53.7,30.04,ENE,63,0.0,0.0,60,0.00,,,0.00,Wunderground v.1.15,2013-05-18 01:11:00,
2013-05-17 21:16:00,68.3,53.9,30.04,ENE,69,0.0,1.0,60,0.00,,,0.00,Wunderground v.1.15,2013-05-18 01:16:00,
2013-05-17 21:21:00,68.4,53.5,30.04,NE,52,0.0,0.0,59,0.00,,,0.00,Wunderground v.1.15,2013-05-18 01:21:00,
2013-05-17 21:26:00,68.5,53.6,30.04,NE,52,0.0,0.0,59,0.00,,,0.00,Wunderground v.1.15,2013-05-18 01:26:00,
2013-05-17 21:31:00,68.6,53.7,30.04,NE,52,0.0,0.0,59,0.00,,,0.00,Wunderground v.1.15,2013-05-18 01:31:00,
2013-05-17 21:36:00,68.6,53.2,30.05,NE,52,0.0,0.0,58,0.00,,,0.00,Wunderground v.1.15,2013-05-18 01:36:00,
2013-05-17 21:41:00,68.7,53.3,30.05,ENE,57,0.0,0.0,58,0.00,,,0.00,Wunderground v.1.15,2013-05-18 01:41:00,
2013-05-17 21:46:00,68.7,52.8,30.05,ENE,57,0.0,0.0,57,0.00,,,0.00,Wunderground v.1.15,2013-05-18 01:46:00,
2013-05-17 21:51:00,68.7,53.3,30.05,ENE,57,0.0,0.0,58,0.00,,,0.00,Wunderground v.1.15,2013-05-18 01:51:00,
2013-05-17 21:56:00,68.7,52.4,30.05,ENE,57,0.0,0.0,56,0.00,,,0.00,Wunderground v.1.15,2013-05-18 01:56:00,
2013-05-17 22:01:00,68.6,53.2,30.05,ENE,57,0.0,0.0,58,0.00,,,0.00,Wunderground v.1.15,2013-05-18 02:01:00,
2013-05-17 22:06:00,68.3,52.9,30.05,ENE,57,0.0,0.0,58,0.00,,,0.00,Wunderground v.1.15,2013-05-18 02:06:00,
2013-05-17 22:11:00,67.9,52.1,30.05,ENE,57,0.0,0.0,57,0.00,,,0.00,Wunderground v.1.15,2013-05-18 02:11:00,
2013-05-17 22:16:00,67.7,52.4,30.05,ENE,57,0.0,0.0,58,0.00,,,0.00,Wunderground v.1.15,2013-05-18 02:16:00,
2013-05-17 22:21:00,67.7,52.9,30.05,ENE,57,0.0,0.0,59,0.00,,,0.00,Wunderground v.1.15,2013-05-18 02:21:00,
2013-05-17 22:26:00,67.7,52.9,30.05,ENE,57,0.0,0.0,59,0.00,,,0.00,Wunderground v.1.15,2013-05-18 02:26:00,
2013-05-17 22:31:00,67.5,53.1,30.05,ENE,57,0.0,0.0,60,0.00,,,0.00,Wunderground v.1.15,2013-05-18 02:31:00,
2013-05-17 22:36:00,67.4,53.5,30.05,ENE,57,0.0,0.0,61,0.00,,,0.00,Wunderground v.1.15,2013-05-18 02:36:00,
2013-05-17 22:41:00,67.2,53.3,30.05,ENE,57,0.0,0.0,61,0.00,,,0.00,Wunderground v.1.15,2013-05-18 02:41:00,
2013-05-17 22:46:00,66.9,53.5,30.05,ENE,57,0.0,0.0,62,0.00,,,0.00,Wunderground v.1.15,2013-05-18 02:46:00,
2013-05-17 22:51:00,66.6,53.6,30.05,ENE,57,0.0,0.0,63,0.00,,,0.00,Wunderground v.1.15,2013-05-18 02:51:00,
2013-05-17 22:56:00,66.3,52.9,30.05,ENE,57,0.0,0.0,62,0.00,,,0.00,Wunderground v.1.15,2013-05-18 02:56:00,
2013-05-17 23:01:00,66.2,52.8,30.05,ENE,57,0.0,0.0,62,0.00,,,0.00,Wunderground v.1.15,2013-05-18 03:01:00,
2013-05-17 23:06:00,66.3,52.9,30.05,ENE,57,0.0,0.0,62,0.00,,,0.00,Wunderground v.1.15,2013-05-18 03:06:00,
2013-05-17 23:11:00,66.3,52.9,30.05,ENE,57,0.0,0.0,62,0.00,,,0.00,Wunderground v.1.15,2013-05-18 03:11:00,
2013-05-17 23:17:00,66.3,52.9,30.05,ENE,57,0.0,0.0,62,0.00,,,0.00,Wunderground v.1.15,2013-05-18 03:17:00,
2013-05-17 23:22:00,66.1,53.1,30.05,ENE,57,0.0,0.0,63,0.00,,,0.00,Wunderground v.1.15,2013-05-18 03:22:00,
2013-05-17 23:27:00,65.8,53.3,30.05,ENE,57,0.0,0.0,64,0.00,,,0.00,Wunderground v.1.15,2013-05-18 03:27:00,
2013-05-17 23:32:00,65.4,52.5,30.05,ENE,57,0.0,0.0,63,0.00,,,0.00,Wunderground v.1.15,2013-05-18 03:32:00,
2013-05-17 23:37:00,65.5,52.6,30.05,ENE,57,0.0,0.0,63,0.00,,,0.00,Wunderground v.1.15,2013-05-18 03:37:00,
2013-05-17 23:42:00,65.6,52.7,30.05,ENE,57,0.0,1.0,63,0.00,,,0.00,Wunderground v.1.15,2013-05-18 03:42:00,
2013-05-17 23:47:00,65.8,52.9,30.05,ENE,57,0.0,1.0,63,0.00,,,0.00,Wunderground v.1.15,2013-05-18 03:47:00,
2013-05-17 23:52:00,65.8,53.3,30.05,ENE,57,0.0,0.0,64,0.00,,,0.00,Wunderground v.1.15,2013-05-18 03:52:00,
2013-05-17 23:57:00,65.8,53.3,30.05,ENE,57,0.0,0.0,64,0.00,,,0.00,Wunderground v.1.15,2013-05-18 03:57:00,